Powrót do katalogu

SL-8 DEB

AktywnyLEO
NORAD 21208·DEBRIS·🇷🇺 Russia

Wystrzelony Feb 12, 1991 z Plesetsk Cosmodrome

Loading…

Następne Przeloty (najbliższe 24 godziny)

TLE

ŚwieżeSource: Space-Track

Epoka: Sep 14, 2026, 07:17 UTC

1 21208U 91009BB  26257.30381497  .00000031  00000-0  38426-3 0  9999
2 21208  73.9611  26.1064 0148017 241.4801 139.2621 12.31159377592843

Śledź SL-8 DEB w czasie rzeczywistym z AllMySat

Download on the App Store